Weather Roundup
Issued by NWS

Home | Current Version | Previous Version | Text Only | Print | Product List | Glossary On
Versions: 1 2 3 4 5 6 7 8 9 10 11 12 13 14 15 16 17 18 19 20 21 22 23 24 25 26 27 28 29 30 31 32 33 34 35 36 37 38 39 40 41 42 43 44 45 46 47 48 49 50
584
NZUS93 KARX 231510
HRRWXR

CURRENT HOURLY OBSERVATIONS ACROSS
MUCH OF THE UPPER MISSISSIPPI VALLEY
NATIONAL WEATHER SERVICE LA CROSSE WI
900 AM CST TUE JAN 23 2018


...SOUTHEAST MINNESOTA...


CITY           SKY/WX    TMP DP  RH WIND       PRES   REMARKS
ROCHESTER      MIX PCPN  17  15  92 N20G33    29.93R FOG     WCI   1
ROCHESTER/MAYO CLOUDY    18  16  92 NW10G18   29.96R WCI   7
WINONA         CLOUDY    23  18  80 NW13G20   29.93R WCI  11
AUSTIN         NOT AVBL
ALBERT LEA     CLOUDY    18  14  86 NW15G21   29.98R WCI   3
DODGE CENTER   CLOUDY    18  14  86 N14G20    29.95R WCI   4
PRESTON        CLOUDY    18  15  89 N12       29.92R WCI   5
OWATONNA       CLOUDY    19  16  86 N20       29.99R WCI   4
FARIBAULT      CLOUDY    19  16  86 N13       30.00R WCI   7
$$

...ELSEWHERE IN MINNESOTA...


CITY           SKY/WX    TMP DP  RH WIND       PRES   REMARKS
MINNEAPOLIS    CLOUDY    18  13  80 NW14      30.01R WCI   4
INTNL FALLS    FAIR       2  -3  80 CALM      30.06S
DULUTH         FAIR       4  -2  76 N9        29.97R WCI -10
RED WING       CLOUDY    19  12  73 NW8       29.97R WCI   9
REDWOOD FALLS  CLEAR     21  16  81 NW10      30.07R WCI  10
MANKATO        FAIR      17  13  84 NW10      30.03R WCI   5
WORTHINGTON    CLOUDY    20  18  92 N17       30.06R WCI   5
FAIRMONT       PTSUNNY   21  18  88 NW18      30.04R WCI   6
$$

...SOUTHWEST WISCONSIN...


CITY           SKY/WX    TMP DP  RH WIND       PRES   REMARKS
LA CROSSE      CLOUDY    25  20  81 N17       29.90R WCI  12
PRAIRIE DU CHI CLOUDY    28  22  79 NW15      29.89R WCI  16
BOSCOBEL       CLOUDY    29  22  75 NW9G20    29.87R WCI  20
LONE ROCK      CLOUDY    28  22  78 NW9       29.84R WCI  19
PLATTEVILLE    CLOUDY    28  25  91 NW12G21   29.84R WCI  17
FORT MC COY    CLOUDY    23  20  89 NW12      29.89R WCI  12
MAUSTON-NEW LI LGT SNOW  24  22  89 NW17G23   29.82R WCI  11
VIROQUA        CLOUDY    24  24  98 N12       29.83R WCI  13
WIS DELLS      FLURRIES  25  21  86 NW10G18   29.80R WCI  15
$$

...ELSEWHERE IN WISCONSIN...


CITY           SKY/WX    TMP DP  RH WIND       PRES   REMARKS
MILWAUKEE      CLOUDY    30  24  78 NW17G24   29.71R WCI  18
MADISON        FLURRIES  26  21  81 NW10G22   29.79R WCI  16
GREEN BAY      CLOUDY    26  20  77 N13       29.74R WCI  15
EAU CLAIRE     CLOUDY    20  16  84 N12G18    29.92R WCI   8
BLACK RVR FLS  CLOUDY    23  21  93 NW10G16   29.89R WCI  12
MEDFORD        CLOUDY    18  15  87 N17       29.82R WCI   3
WAUSAU         CLOUDY    20  16  84 N13G28    29.78R WCI   7
WIS RAPIDS     NOT AVBL
MARSHFIELD     CLOUDY    21  18  88 N15G26    29.81R WCI   8
RICE LAKE      CLOUDY    17  13  84 N14       29.95R WCI   3
$$

...NORTHEAST IOWA...


CITY           SKY/WX    TMP DP  RH WIND       PRES   REMARKS
WATERLOO       PTSUNNY   22  17  81 NW22      29.96R WCI   6
DUBUQUE        CLOUDY    27  22  81 NW15      29.85R WCI  15
DECORAH        CLOUDY    21  19  93 NW17G26   29.89R WCI   7
MASON CITY     MOSUNNY   19  14  81 NW21      30.00R WCI   3
CHARLES CITY   CLOUDY    21  21 100 NW20G28   29.97R WCI   6
OELWEIN        CLOUDY    25  25 100 NW22G29   29.93R WCI  10
$$

...ELSEWHERE IN IOWA...


CITY           SKY/WX    TMP DP  RH WIND       PRES   REMARKS
DES MOINES     CLOUDY    26  21  81 NW18      30.05R WCI  13
IOWA CITY      CLOUDY    31  22  69 NW22G31   29.94R WCI  18
FORT DODGE     CLOUDY    23  19  85 NW8       30.05R WCI  14
MARSHALLTOWN   CLOUDY    25  20  81 NW24G31   29.99R WCI   9
CEDAR RAPIDS   CLOUDY    29  23  78 NW16G29   29.91R WCI  17
$$

...NORTHERN ILLINOIS...


CITY           SKY/WX    TMP DP  RH WIND       PRES   REMARKS
CHICAGO-OHARE  CLOUDY    32  26  78 NW16      29.73R WCI  21
CHICAGO-MIDWAY CLOUDY    33  28  81 NW15      29.74R WCI  23
MOLINE         CLOUDY    31  23  72 NW15G26   29.87R WCI  20
ROCKFORD       CLOUDY    29  23  78 N17       29.81R WCI  17
PEORIA         CLOUDY    34  29  82 NW15G23   29.84R WCI  24
$$

NOTE: "FAIR" INDICATES FEW OR NO CLOUDS BELOW 12,000 FEET WITH NO
SIGNIFICANT WEATHER AND/OR OBSTRUCTIONS TO VISIBILITY. WIND
SPEEDS ARE IN MILES-PER-HOUR.




USA.gov is the U.S. government's official web portal to all federal, state and local government web resources and services.